Regional Weather Roundup
Issued by NWS

Home | Current Version | Previous Version | Text Only | Print | Product List | Glossary Off
Versions: 1 2 3 4 5 6 7 8 9 10 11 12 13 14 15 16 17 18 19 20 21 22 23 24 25 26 27 28 29 30 31 32 33 34 35 36 37 38 39 40 41 42 43 44 45 46 47 48 49 50

000
ASUS43 KFSD 210502
RWRSD

WEATHER ROUNDUP FOR SOUTH DAKOTA
NATIONAL WEATHER SERVICE SIOUX FALLS SD
1100 PM CST TUE FEB 20 2018

NOTE: "FAIR" INDICATES FEW OR NO CLOUDS BELOW 12,000 FEET WITH NO
SIGNIFICANT WEATHER AND/OR OBSTRUCTIONS TO VISIBILITY.


SDZ001>005-009-010-012>017-210600-
NORTHWEST AND NORTH CENTRAL SOUTH DAKOTA

CITY           SKY/WX    TMP DP  RH WIND       PRES   REMARKS
BUFFALO          N/A     -9 -16  71 W17       30.10R WCI -32
FAITH            N/A    -11 -15  82 S12       30.26R WCI -31
MOBRIDGE       CLEAR     -6 -11  79 CALM      30.30R
$$

SDZ012>016-024>037-041>051-057-063-072>074-210600-
SOUTHWEST AND SOUTH CENTRAL SOUTH DAKOTA

CITY           SKY/WX    TMP DP  RH WIND       PRES   REMARKS
RAPID CTY ARPT CLEAR    -11 -14  86 CALM      30.24R
PIERRE         CLEAR     -3  -9  75 SW9       30.38R WCI -19
CUSTER         CLEAR     -1 -11  62 W5        30.03R WCI -11
ELLSWORTH AFB  PTCLDY    -4  -9  81 W5        30.22R WCI -15
PHILIP         CLEAR    -13 -17  82 W5        30.36R WCI -25
PINE RIDGE     CLEAR    -17 -22  78 CALM      30.27R
SPEARFISH        N/A      1 -13  51 W6        30.16R WCI -10
WINNER         FAIR      -2 -10  69 SW8       30.39R WCI -17
$$

SDZ004>011-016>023-039-040-210600-
NORTHEAST SOUTH DAKOTA

CITY           SKY/WX    TMP DP  RH WIND       PRES   REMARKS
ABERDEEN       CLEAR     -9 -14  78 SW10      30.36R WCI -27
WATERTOWN      CLEAR     -1  -5  82 W10       30.31R WCI -17
BROOKINGS      CLOUDY     0  -4  83 W12       30.35R WCI -17
SISSETON         N/A      4  -3  73 W14       30.32R WCI -14
$$

SDZ017-020-022-023-036>040-048>070-210600-
SOUTHEAST SOUTH DAKOTA

CITY           SKY/WX    TMP DP  RH WIND       PRES   REMARKS
SIOUX FALLS    CLOUDY     3  -2  79 NW12      30.38R WCI -13
HURON          CLEAR     -2  -7  79 SW8       30.41R WCI -17
CHAMBERLAIN    CLEAR     -1  -6  80 SW9       30.41R WCI -17
MITCHELL       CLEAR      1  -5  75 W10       30.43R WCI -15
YANKTON        CLOUDY     2  -4  76 W8        30.44R WCI -12
$$

ABBREVIATIONS USED IN REMARKS
   TC - TEMPERATURE IN CELSIUS
  WCI - WIND CHILL INDEX
   HX - HEAT INDEX
  VSB - VISIBILITY





USA.gov is the U.S. government's official web portal to all federal, state and local government web resources and services.